Current weather by "City, St" or "zip code"  
 
Advertise Here

Current Conditions: Tuscaloosa Regional Airport, AL

Clear


NULL F

Last Updated on Jan 26 2021, 8:01 am CST
Humidity: %
Wind Speed: mph
Barometer 29.91 in
Dewpoint: F
Visibility: 10.00 mi
Precip: --
Heat Index: NA
Wind Chill: NA
Current conditions at:

Tuscaloosa Regional Airport, AL (KTCL)

Lat: 33.21215 Lon: 87.61554

Local Radar Image active severe weather and emergency alerts image image weather storm and storm spotter reports image weather observation monitoring service image
Local
Radar
Active
Alerts
Storm Reports Obs
Monitoring

Sign-up For Email & Text Message Weather Alert Notification Services


Advertise Here

Observation History for Tuscaloosa Regional Airport, AL


Time Wind
(mph)
Vis
(mi)
Weather Precip (in) Temperature (F) Relative
Humidity
Wind
Chill
(F)
Heat
Index
(F)
Pressure
Air Dwpt altimeter
(in)
sea level
(mb)
Rmks
8:01 am CST 10.00 Clear -- NULL % NA NA 29.91 M
12:53 am CST SW 3.5 5.00 Thunderstorm Light Rain Fog/Mist 00.66 65.0 64.0 97% NA NA 29.78 1008.3
11:53 pm CST NW 19.6 G 29.9 9.00 Thunderstorm in Vicinity -- 70.0 64.0 82% NA NA 29.78 1008.3
8:53 pm CST S 17.3 G 25.3 9.00 Overcast -- 72.0 66.9 84% NA NA 29.74 1006.9
7:53 pm CST S 17.3 G 25.3 9.00 Overcast -- 72.0 66.9 84% NA NA 29.75 1007.1
6:53 pm CST S 17.3 G 26.5 10.00 Overcast -- 73.0 66.0 79% NA NA 29.73 1006.5
5:53 pm CST S 12.7 G 21.9 10.00 Overcast -- 74.0 64.9 74% NA NA 29.72 1006.1
4:53 pm CST S 16.1 G 20.7 10.00 Overcast -- 74.0 64.9 74% NA NA 29.73 1006.5
3:53 pm CST S 12.7 10.00 Overcast -- 75.0 64.9 71% NA NA 29.74 1006.9
2:53 pm CST S 13.8 10.00 Partly Cloudy -- 75.0 64.0 69% NA NA 29.75 1007.3
12:53 pm CST S 9.2 10.00 Mostly Cloudy -- 73.0 66.0 79% NA NA 29.82 1009.6
11:53 am CST S 9.2 10.00 Overcast -- 71.0 66.0 84% NA NA 29.85 1010.5
10:53 am CST S 4.6 10.00 Overcast -- 68.0 64.9 90% NA NA 29.87 1011.4
9:53 am CST SW 5.8 7.00 Overcast -- 66.0 64.9 96% NA NA 29.88 1011.7
8:53 am CST S 10.4 G 23.0 9.00 Overcast -- 66.0 64.0 93% NA NA 29.85 1010.6

Regional Weather Observation


Jasper Walker County Airport amp; Bevill Field, AL (KJFX)

Fair
52.0 F

Columbus Air Force Base, MS (KCBM)

Fair
49.0 F

Columbus/West Point/Starkville, Golden Triangle Regional Airport, MS (KGTR)

A Few Clouds
54.0 F

Monroe County Airport, MS (KM40)

A Few Clouds
50.0 F

George M Bryan Airport, Starkville, MS (KSTF)

Partly Cloudy
46.0 F

Bessemer Airport, AL (KEKY)

Fair
57.0 F